OPS 4682 DEB, 38446

Orbit data source: Space-Track

OPS 4682 DEB, 38446 is space debris in LEO originally from a launch on Sat, 03 Apr 1965 UTC launched from the Air Force Western Test Range (AFWTR). Debris objects in space refer to the collection of defunct objects orbiting the Earth. Examples of debris include non-operational satellites, rocket bodies, and fragments generated from explosions, collisions, or faulty payload assembly.

Loading next visibility...
Identifier
38446, 1965-027FB
Orbit
LEO
Country
Flag of USUS
Related business
Manufacturer
Unknown
Mission
Spacecraft
Bus & Motor
Unknown
Mass
Unknown
Launch date (UTC)
1965-04-03 (61 years ago)
Launch vehicle
Unknown
Launch site
Air Force Western Test Range (AFWTR)
Object type
Payload
Rocket body
Debris
Shape & HBR
Unknown shape, 0.1 m
Radar Cross Section
Small (<0.1 m²)

Expand to show TLE details & history
Last TLE update: 11 hours ago

TLE from 11 hours ago
0 OPS 4682 DEB
1 38446U 65027FB  26150.08014553 -.00000496  00000-0 -16400-2 0  9999
2 38446  90.2709  27.4271 0017866  90.0748 270.2422 13.01364378584926
Epoch: 2026-05-30T01:55Z
TLE epoch observation values (Epoch: 2026-05-30T01:55:24.573Z)
Latitude
-0.00006°
Longitude
110.9734°
Altitude
1,259.598 km
Speed
7.226 km/s
True Right ascension
01h 49m 42s
True Declination
0° 00' 00"
Sunlit
Object was in daylight at epoch
Visualization orbit readout
Latitude
Unknown
Longitude
Unknown
Altitude
Unknown
Speed
Unknown
Apparent Right ascension
Unknown
Apparent Declination
Unknown
Sunlit
N/A
Visualization observer readout
Local Sidereal Time
22:05:51
Azimuth
Unknown
Elevation
Unknown
Doppler factor
Unknown
Orbital elements
Apogee altitude
1,267.506 km
Perigee altitude
1,240.235 km
Semi-major axis
7,632.008 km
Eccentricity
0.00179
Inclination
90.2709°
RAAN
27.4271°
Arg. of periapsis
90.0748°
True anomaly
270.03747°
Mean anomaly
270.2422°
Eccentric anomaly
270.13984°
Mean motion
3.25525 °/min
Orbital period
110.59 mins
BSTAR
-0.00164
Loading maneuver chart data...
Computing Atmospheric mass density...
Loading historical data...
Loading historical data...
Loading historical data...
Loading historical data...
Loading historical data...
Loading historical data...
Loading historical data...

Documentation

Showing up to 5 results
|